Weather Roundup
Issued by NWS Chicago, IL

Home | Current Version | Previous Version | Graphics & Text | Print | Product List | Glossary On
Versions: 1 2 3 4 5 6 7 8 9 10 11 12 13 14 15 16 17 18 19 20 21 22 23 24 25 26 27 28 29 30 31 32 33 34 35 36 37 38 39 40 41 42 43 44 45 46 47 48 49 50
000
NZUS59 KLOT 240000
HRRLOT

CHICAGO AREA WEATHER ROUNDUP
NATIONAL WEATHER SERVICE CHICAGO/ROMEOVILLE IL
600 PM CST SUN NOV 23 2014

NOTE: "FAIR" INDICATES FEW OR NO CLOUDS BELOW 12,000 FEET WITH NO
SIGNIFICANT WEATHER AND/OR OBSTRUCTIONS TO VISIBILITY.

* THESE STATIONS ARE NOT UNDER NWS QUALITY CONTROL. THEY ALSO MAY NOT
  REPORT WEATHER SUCH AS PRECIPITATION OR FOG.

ILZ005-006-012>014-019>023-240100-
NORTHEAST ILLINOIS

CITY           SKY/WX    TMP DP  RH WIND       PRES   REMARKS
OHARE          LGT RAIN  50  49  96 SE8       29.37F FOG
6HR MIN TEMP:  50; 6HR MAX TEMP:  52; 6HR PCP:  0.21;

MIDWAY         LGT RAIN  52  51  97 SE7       29.37F
6HR MIN TEMP:  52; 6HR MAX TEMP:  54; 6HR PCP:  0.20;

AURORA         LGT RAIN  51  48  89 SE6       29.35F FOG
6HR MIN TEMP:  50; 6HR MAX TEMP:  52; 6HR PCP:  0.23;

WAUKEGAN       LGT RAIN  46  45  96 SE8       29.38F FOG
6HR MIN TEMP:  45; 6HR MAX TEMP:  52; 6HR PCP:  0.20;

DUPAGE AIRPORT RAIN      50  49  96 E6        29.35F FOG
6HR MIN TEMP:  50; 6HR MAX TEMP:  51; 6HR PCP:  0.20;

WHEELING       LGT RAIN  49  48  97 E6        29.39F FOG
6HR MIN TEMP:  49; 6HR MAX TEMP:  52; 6HR PCP:  0.21;

NORTHERLY IS     N/A     44  42  93 SE2         N/A
$$

WIZ051-052-058>065-066-070>072-240100-
SOUTHEAST WISCONSIN

CITY           SKY/WX    TMP DP  RH WIND       PRES   REMARKS
MILWAUKEE      LGT RAIN  47  45  93 SE8       29.40F FOG
6HR MIN TEMP:  47; 6HR MAX TEMP:  50; 6HR PCP:  0.16;

KENOSHA*       LGT RAIN  48  47  96 SE12      29.39F FOG
RACINE*        LGT RAIN  47  45  93 SE13      29.41F FOG
WAUKESHA       LGT RAIN  45  45 100 SE7       29.40F FOG
$$

INZ001>003-010>013-019-020-240100-
NORTHWEST INDIANA

CITY           SKY/WX    TMP DP  RH WIND       PRES   REMARKS
GARY*          NOT AVBL
MICHIGAN CITY* NOT AVBL
RENSSELAER*    NOT AVBL
$$

LMZ740>746-240100-
SOUTHERN LAKE MICHIGAN

STATION/POSITION TIME  SKY/WX   TEMP WIND        PRES    VSBY
                                AIR  DIR/SP/G
                 (UTC)          (F)  (DEG/KT/KT) (MB)    (MI)
HARRISON CRIB    2300            46  120/ 17/ 18   N/A
BURNHAM HARBOR   0000            44  160/  2/  4   N/A
CALUMET HARBOR   2300            51  140/  9/ 15  994.4F
BURNS HARBOR     NOT AVBL
MICHIGAN CITY    2300            51  110/ 10/ 14   N/A
$$

ABBREVIATIONS USED IN REMARKS
   TC - TEMPERATURE IN CELSIUS
  WCI - WIND CHILL INDEX
   HX - HEAT INDEX
  VSB - VISIBILITY
$$



USA.gov is the U.S. government's official web portal to all federal, state and local government web resources and services.